AirNav   $300 off a Bose A20 aviation headset
 
 356 users online  

SC21 Myrtle Beach Hardee Airpark
Loris, South Carolina, USA

GOING TO LORIS?


FAA INFORMATION EFFECTIVE 28 FEBRUARY 2019

Location

FAA Identifier: SC21
Lat/Long: 33-56-30.6160N / 078-49-59.0850W
33-56.510267N / 078-49.984750W
33.9418378 / -78.8330792
(estimated)
Elevation: 35 ft. / 11 m (estimated)
Variation: 06W (1985)
From city: 8 miles SE of LORIS, SC
Time zone: UTC -5 (UTC -4 during Daylight Saving Time)
Zip code: 29569

Airport Operations

Airport use: Private use. Permission required prior to landing
Activation date: 05/1974
Control tower: no
ARTCC: JACKSONVILLE CENTER
FSS: ANDERSON FLIGHT SERVICE STATION
Attendance: UNATNDD
Wind indicator: yes
Segmented circle: no
Lights: ACTVT LIRL RY 18/36 - 123.075 - 4 CLICKS.

Airport Communications

WX ASOS at CRE (10 nm SE): PHONE 843-361-2802
WX AWOS-3 at HYW (16 nm SW): 119.525 (843-397-8046)
WX AWOS-3PT at MYR (16 nm S): 123.925 (843-238-0335)

Nearby radio navigation aids

VOR radial/distance  VOR name  Freq  Var
CREr328/9.4GRAND STRAND VORTAC117.6003W

 
NDB name  Hdg/Dist  Freq  Var  ID
HORRY072/16.337008WHYW .... -.-- .--
CAMP204/20.822707WCPC -.-. .--. -.-.
ELIZABETHTOWN212/38.639808WTGQ - --. --.-

Airport Services

Airframe service: NONE
Powerplant service: NONE

Runway Information

Runway 18/36

Dimensions: 3300 x 130 ft. / 1006 x 40 m
Surface: turf
Runway edge lights: low intensity
RUNWAY 18  RUNWAY 36
Traffic pattern: leftleft

Airport Ownership and Management from official FAA records

Ownership: Privately-owned
Owner: MYRTLE BEACH HARDEE AIRPART POA
211 MOONEY CT
LORIS, SC 29569
Phone 843-602-8220
Manager: RONALD HEIDEBRINK
211 MOONEY CT
LORIS, SC 29569
Phone 843-602-8220

Airport Operational Statistics

Aircraft based on the field: 8
Single engine airplanes: 7
Ultralights: 1
    

Additional Remarks

24 HOUR CCTV SURVEILLANCE
TREES 400FT S OF RY 18.

Instrument Procedures

There are no published instrument procedures at SC21.

Some nearby airports with instrument procedures:

5J9 - Twin City Airport (9 nm N)
KCRE - Grand Strand Airport (10 nm SE)
KHYW - Conway-Horry County Airport (16 nm SW)
KMYR - Myrtle Beach International Airport (16 nm S)
KCPC - Columbus County Municipal Airport (21 nm N)
 
Loc | Ops | Rwys | IFR | FBO | Links
Com | Nav | Svcs | Stats | Notes
Area around SC21 (Myrtle Beach Hardee Airpark)
 
Road maps at: MapQuest Bing Google
 
Aerial photo
WARNING: Photo may not be current or correct
Aerial photo of SC21 (Myrtle Beach Hardee Airpark)
Photo by Ron Heidebrink
Photo taken 26-Feb-2010
looking north-northeast.

Do you have a better or more recent aerial photo of Myrtle Beach Hardee Airpark that you would like to share? If so, please send us your photo.

 
Sectional chart

 
Airport distance calculator
Flying to Myrtle Beach Hardee Airpark? Find the distance to fly.

From to SC21

Sunrise and sunset
Times for 20-Mar-2019
 Local
(UTC-4)
 Zulu
(UTC)
Morning civil twilight06:5510:55
Sunrise07:2011:20
Sunset19:2623:26
Evening civil twilight19:5123:51

Current date and time
Zulu (UTC)  20-Mar-2019 05:47:21
Local (UTC-4)  20-Mar-2019 01:47:21
 
METAR
KCRE 
9nm SE 
200453Z AUTO 36005KT 10SM BKN039 BKN047 09/01 A3027 RMK AO1 SLP250 T00890006 401440050
KHYW 
16nm SW 
200515Z AUTO 35003KT 7SM OVC036 08/00 A3029 RMK AO2
KMYR 
17nm S 
200456Z AUTO 01009KT 10SM OVC035 10/M01 A3027 RMK AO2 SLP252 T01001006 401440050
TAF
KCRE 
9nm SE 
191720Z 1918/2018 03010G16KT P6SM SCT250 FM200000 03010KT P6SM SCT050 FM200600 03011G17KT P6SM BKN050 FM201500 02011G17KT P6SM OVC025
KMYR 
17nm S 
191720Z 1918/2018 03010G16KT P6SM SCT250 FM200000 03010KT P6SM SCT050 FM200600 03011G17KT P6SM BKN050 FM201500 02010G17KT P6SM OVC025
NOTAMs
Click for the latest NOTAMs
NOTAMs are issued by the DoD/FAA and will open in a separate window not controlled by AirNav.

 

 
 

Would you like to see your business listed on this page?

 If your business provides an interesting product or service to pilots, flight crews, aircraft, or users of the Myrtle Beach Hardee Airpark, you should consider listing it here.  To start the listing process, click on the button below
 
Add a business
 

Other Pages about Myrtle Beach Hardee Airpark

www.hardeeairpark.com
 
Update a link
 
Copyright © AirNav, LLC. All rights reserved. Privacy Policy  Contact